TimeEDT,TemperatureF,Dew PointF,Humidity,Sea Level PressureIn,VisibilityMPH,Wind Direction,Wind SpeedMPH,Gust SpeedMPH,PrecipitationIn,Events,Conditions,WindDirDegrees,DateUTC
12:53 AM,68.0,66.0,93,29.82,10.0,Calm,Calm,-,N/A,,Mostly Cloudy,0,2013-09-02 04:53:00
1:53 AM,66.9,64.9,93,29.81,10.0,Calm,Calm,-,N/A,,Clear,0,2013-09-02 05:53:00
2:53 AM,64.9,64.0,97,29.81,10.0,Calm,Calm,-,N/A,,Mostly Cloudy,0,2013-09-02 06:53:00
3:53 AM,64.9,64.0,97,29.81,10.0,Calm,Calm,-,N/A,,Partly Cloudy,0,2013-09-02 07:53:00
4:53 AM,64.0,62.1,93,29.81,7.0,Calm,Calm,-,N/A,,Clear,0,2013-09-02 08:53:00
5:53 AM,64.0,63.0,96,29.81,7.0,Calm,Calm,-,N/A,,Overcast,0,2013-09-02 09:53:00
6:18 AM,64.4,64.4,100,29.84,9.0,Calm,Calm,-,N/A,,Overcast,0,2013-09-02 10:18:00
6:31 AM,64.4,64.4,100,29.84,8.0,Calm,Calm,-,N/A,,Overcast,0,2013-09-02 10:31:00
6:53 AM,64.9,64.0,97,29.81,7.0,Calm,Calm,-,N/A,,Mostly Cloudy,0,2013-09-02 10:53:00
7:14 AM,64.4,64.4,100,29.84,8.0,Calm,Calm,-,N/A,,Mostly Cloudy,0,2013-09-02 11:14:00
7:39 AM,68.0,66.2,94,29.85,10.0,Calm,Calm,-,N/A,,Mostly Cloudy,0,2013-09-02 11:39:00
7:53 AM,69.1,66.0,90,29.83,9.0,Calm,Calm,-,N/A,,Scattered Clouds,0,2013-09-02 11:53:00
8:53 AM,73.0,69.1,87,29.82,10.0,Calm,Calm,-,N/A,,Clear,0,2013-09-02 12:53:00
9:53 AM,75.9,69.1,79,29.83,10.0,West,6.9,-,N/A,,Partly Cloudy,260,2013-09-02 13:53:00
10:14 AM,75.2,69.8,83,29.86,10.0,WSW,5.8,-,N/A,,Mostly Cloudy,240,2013-09-02 14:14:00
10:44 AM,78.8,69.8,74,29.86,10.0,WSW,6.9,-,N/A,,Mostly Cloudy,240,2013-09-02 14:44:00
10:53 AM,78.1,70.0,76,29.83,10.0,SSW,5.8,-,N/A,,Mostly Cloudy,210,2013-09-02 14:53:00
11:53 AM,81.0,70.0,69,29.82,10.0,Variable,5.8,-,N/A,,Partly Cloudy,0,2013-09-02 15:53:00
12:53 PM,82.9,69.1,63,29.81,10.0,SW,8.1,-,N/A,Thunderstorm,Partly Cloudy,230,2013-09-02 16:53:00
1:06 PM,82.4,68.0,62,29.84,10.0,West,9.2,-,N/A,Thunderstorm,Scattered Clouds,270,2013-09-02 17:06:00
1:27 PM,84.2,68.0,58,29.84,10.0,NW,8.1,-,N/A,,Scattered Clouds,310,2013-09-02 17:27:00
1:53 PM,84.0,66.9,56,29.79,10.0,West,8.1,-,N/A,,Mostly Cloudy,280,2013-09-02 17:53:00
2:53 PM,84.9,64.9,51,29.78,10.0,West,13.8,-,N/A,,Partly Cloudy,270,2013-09-02 18:53:00
3:53 PM,84.9,64.0,49,29.76,10.0,WSW,11.5,-,N/A,,Clear,250,2013-09-02 19:53:00
4:53 PM,84.0,64.0,51,29.75,10.0,West,10.4,-,N/A,,Clear,260,2013-09-02 20:53:00
5:53 PM,82.0,66.9,60,29.76,10.0,West,8.1,-,N/A,,Partly Cloudy,260,2013-09-02 21:53:00
6:53 PM,79.0,66.9,66,29.76,8.0,West,4.6,-,N/A,,Clear,260,2013-09-02 22:53:00
7:53 PM,75.9,66.0,71,29.77,9.0,WNW,5.8,-,N/A,,Clear,300,2013-09-02 23:53:00
8:53 PM,73.9,64.9,73,29.78,10.0,NNE,6.9,-,0.00,Rain,Light Rain,30,2013-09-03 00:53:00
9:07 PM,71.6,64.4,78,29.81,10.0,WSW,5.8,-,0.00,Thunderstorm,Overcast,250,2013-09-03 01:07:00
9:47 PM,68.0,66.2,94,29.87,1.8,WSW,12.7,18.4,0.07,Rain-Thunderstorm,Heavy Thunderstorms and Rain,240,2013-09-03 01:47:00
9:53 PM,68.0,66.9,96,29.84,1.8,SW,16.1,20.7,0.17,Rain-Thunderstorm,Heavy Thunderstorms and Rain,230,2013-09-03 01:53:00
10:12 PM,66.2,66.2,100,29.84,3.0,SSW,8.1,-,0.26,Rain-Thunderstorm,Thunderstorms and Rain,210,2013-09-03 02:12:00
10:53 PM,66.9,64.9,93,29.79,9.0,West,4.6,-,0.28,Rain-Thunderstorm,Light Rain,280,2013-09-03 02:53:00
11:07 PM,66.2,66.2,100,29.84,10.0,West,5.8,-,0.00,Rain,Light Rain,260,2013-09-03 03:07:00
11:53 PM,66.0,64.9,96,29.79,6.0,Calm,Calm,-,0.00,,Clear,0,2013-09-03 03:53:00